Port Huron, MI

5:39 AM EDT on May 29, 2017 (GMT -0400)
Saint Clair County International

Weather History for KPHN - September, 2013

Change the Weather History Date:

Friday, September 27, 2013

  Actual Average (KMTC) Record (KMTC)
Temperature  
Mean Temperature 57 °F -  
Max Temperature 73 °F 68 °F 87 °F (1998)
Min Temperature 41 °F 48 °F 33 °F (1965)
Degree Days  
Heating Degree Days 8    
Growing Degree Days 7 (Base 50)    
Moisture  
Dew Point 51 °F    
Average Humidity 86    
Maximum Humidity 100    
Minimum Humidity 53    
Precipitation  
Precipitation 0.00 in - - ()
Sea Level Pressure  
Sea Level Pressure 30.21 in    
Wind  
Wind Speed 1 mph (NE)    
Max Wind Speed 8 mph    
Max Gust Speed -    
Visibility 6 miles    
Events Fog    
Averages and records for this station are not official NWS values.
T = Trace of Precipitation, MM = Missing Value Source: NWS Daily Summary

Daily Weather History Graph

Daily Weather History Graph

Search for Another Location

Airport or City:

Trip Planner

Search our weather history database for the weather conditions in past years. The results will help you decide how hot, cold, wet, or windy it might be!

Date:

Astronomy

Sep. 27, 2013 Rise Set
Actual Time 7:23 AM EDT 7:18 PM EDT
Civil Twilight 6:54 AM EDT 7:46 PM EDT
Nautical Twilight 6:21 AM EDT 8:19 PM EDT
Astronomical Twilight 5:48 AM EDT 8:52 PM EDT
Moon 12:09 AM EDT (9/27) 3:03 PM EDT (9/27)
Length of Visible Light 12h 51m
Length of Day
11h 54m
Last Quarter, 45% of the Moon is Illuminated
Sep 27
Last Quarter
Oct 4
New
Oct 11
First Quarter
Oct 18
Full
Oct 26
Last Quarter

Hourly Weather History & Observations

Time (EDT) Temp. Dew Point Humidity Pressure Visibility Wind Dir Wind Speed Gust Speed Precip Events Conditions
12:16 AM 46.4 °F 46.4 °F 100% 30.16 in 0.2 mi Calm Calm - N/A Fog Fog
12:36 AM 46.4 °F 46.4 °F 100% 30.16 in 0.2 mi Calm Calm - N/A Fog Fog
12:56 AM 46.4 °F 46.4 °F 100% 30.17 in 0.2 mi Calm Calm - N/A Fog Fog
1:16 AM 44.6 °F 44.6 °F 100% 30.17 in 0.5 mi Calm Calm - N/A Fog Fog
1:36 AM 44.6 °F 44.6 °F 100% 30.17 in 0.5 mi Calm Calm - N/A Fog Fog
1:56 AM 44.6 °F 44.6 °F 100% 30.17 in 0.5 mi Calm Calm - N/A Fog Fog
2:16 AM 44.6 °F 44.6 °F 100% 30.17 in 0.2 mi Calm Calm - N/A Fog Fog
2:36 AM 44.6 °F 44.6 °F 100% 30.17 in 0.5 mi Calm Calm - N/A Fog Fog
2:56 AM 44.6 °F 44.6 °F 100% 30.18 in 0.5 mi Calm Calm - N/A Fog Fog
3:16 AM 44.6 °F 44.6 °F 100% 30.18 in 0.2 mi Calm Calm - N/A Fog Fog
3:36 AM 44.6 °F 44.6 °F 100% 30.17 in 0.2 mi Calm Calm - N/A Fog Fog
3:56 AM 44.6 °F 44.6 °F 100% 30.17 in 0.5 mi Calm Calm - N/A Fog Fog
4:16 AM 42.8 °F 42.8 °F 100% 30.17 in 0.2 mi Calm Calm - N/A Fog Fog
4:36 AM 42.8 °F 42.8 °F 100% 30.18 in 0.5 mi Calm Calm - N/A Fog Fog
4:56 AM 42.8 °F 42.8 °F 100% 30.19 in 0.2 mi Calm Calm - N/A Fog Fog
5:16 AM 42.8 °F 42.8 °F 100% 30.19 in 1.2 mi Calm Calm - N/A   Overcast
5:36 AM 41.0 °F 41.0 °F 100% 30.19 in 1.0 mi Calm Calm - N/A   Mostly Cloudy
5:56 AM 41.0 °F 41.0 °F 100% 30.20 in 1.5 mi Calm Calm - N/A   Mist
6:16 AM 41.0 °F 41.0 °F 100% 30.21 in 1.0 mi Calm Calm - N/A   Mist
6:36 AM 41.0 °F 41.0 °F 100% 30.21 in 5.0 mi Calm Calm - N/A   Clear
6:56 AM 41.0 °F 41.0 °F 100% 30.22 in 1.2 mi Calm Calm - N/A   Mist
7:16 AM 41.0 °F 41.0 °F 100% 30.22 in 0.5 mi Calm Calm - N/A Fog Fog
7:36 AM 41.0 °F 41.0 °F 100% 30.23 in 0.2 mi Calm Calm - N/A Fog Fog
7:56 AM 42.8 °F 42.8 °F 100% 30.23 in 0.5 mi Calm Calm - N/A Fog Fog
8:16 AM 44.6 °F 44.6 °F 100% 30.23 in 10.0 mi Calm Calm - N/A   Clear
8:36 AM 46.4 °F 46.4 °F 100% 30.24 in 10.0 mi Calm Calm - N/A   Clear
8:56 AM 51.8 °F 51.8 °F 100% 30.24 in 7.0 mi Calm Calm - N/A   Clear
9:16 AM 53.6 °F 53.6 °F 100% 30.24 in 10.0 mi Calm Calm - N/A   Clear
9:36 AM 57.2 °F 57.2 °F 100% 30.25 in 10.0 mi ENE 3.5 mph - N/A   Clear
9:56 AM 59.0 °F 59.0 °F 100% 30.25 in 10.0 mi Calm Calm - N/A   Clear
10:16 AM 60.8 °F 60.8 °F 100% 30.25 in 10.0 mi ENE 3.5 mph - N/A   Clear
10:36 AM 62.6 °F 60.8 °F 94% 30.25 in 10.0 mi East 3.5 mph - N/A   Clear
10:56 AM 64.4 °F 59.0 °F 83% 30.25 in 10.0 mi East 3.5 mph - N/A   Clear
11:16 AM 66.2 °F 59.0 °F 78% 30.26 in 10.0 mi Calm Calm - N/A   Clear
11:36 AM 68.0 °F 59.0 °F 73% 30.26 in 10.0 mi Calm Calm - N/A   Clear
11:56 AM 68.0 °F 59.0 °F 73% 30.25 in 10.0 mi Calm Calm - N/A   Clear
12:16 PM 69.8 °F 57.2 °F 64% 30.25 in 10.0 mi Calm Calm - N/A   Clear
12:36 PM 69.8 °F 57.2 °F 64% 30.25 in 10.0 mi ENE 4.6 mph - N/A   Clear
12:56 PM 69.8 °F 57.2 °F 64% 30.25 in 10.0 mi ENE 4.6 mph - N/A   Clear
1:16 PM 71.6 °F 55.4 °F 57% 30.24 in 10.0 mi Calm Calm - N/A   Clear
1:36 PM 71.6 °F 55.4 °F 57% 30.24 in 10.0 mi Calm Calm - N/A   Clear
1:56 PM 73.4 °F 55.4 °F 53% 30.23 in 10.0 mi East 3.5 mph - N/A   Clear
2:16 PM 73.4 °F 57.2 °F 57% 30.22 in 10.0 mi East 4.6 mph - N/A   Clear
2:36 PM 73.4 °F 57.2 °F 57% 30.22 in 10.0 mi East 3.5 mph - N/A   Clear
2:56 PM 73.4 °F 57.2 °F 57% 30.21 in 10.0 mi Calm Calm - N/A   Clear
3:16 PM 73.4 °F 57.2 °F 57% 30.21 in 10.0 mi NE 4.6 mph - N/A   Clear
3:36 PM 73.4 °F 57.2 °F 57% 30.20 in 10.0 mi NNE 4.6 mph - N/A   Clear
3:56 PM 71.6 °F 57.2 °F 60% 30.20 in 10.0 mi North 5.8 mph - N/A   Clear
4:16 PM 71.6 °F 57.2 °F 60% 30.20 in 10.0 mi North 3.5 mph - N/A   Clear
4:36 PM 71.6 °F 57.2 °F 60% 30.20 in 10.0 mi NNE 6.9 mph - N/A   Clear
4:56 PM 71.6 °F 57.2 °F 60% 30.20 in 10.0 mi NE 6.9 mph - N/A   Clear
5:16 PM 71.6 °F 57.2 °F 60% 30.20 in 10.0 mi NNE 6.9 mph - N/A   Clear
5:36 PM 71.6 °F 57.2 °F 60% 30.20 in 10.0 mi NE 6.9 mph - N/A   Clear
5:56 PM 69.8 °F 57.2 °F 64% 30.20 in 10.0 mi NE 8.1 mph - N/A   Clear
6:16 PM 68.0 °F 57.2 °F 68% 30.20 in 10.0 mi NE 8.1 mph - N/A   Clear
6:36 PM 66.2 °F 57.2 °F 73% 30.20 in 10.0 mi NE 5.8 mph - N/A   Clear
6:56 PM 64.4 °F 57.2 °F 77% 30.20 in 10.0 mi NE 5.8 mph - N/A   Clear
7:16 PM 62.6 °F 55.4 °F 77% 30.20 in 10.0 mi NNE 3.5 mph - N/A   Clear
7:36 PM 60.8 °F 55.4 °F 82% 30.21 in 10.0 mi NE 3.5 mph - N/A   Clear
7:56 PM 57.2 °F 55.4 °F 94% 30.21 in 10.0 mi NNE 4.6 mph - N/A   Clear
8:16 PM 57.2 °F 55.4 °F 94% 30.21 in 10.0 mi SSW 4.6 mph - N/A   Clear
8:36 PM 55.4 °F 53.6 °F 94% 30.21 in 10.0 mi Calm Calm - N/A   Clear
8:56 PM 55.4 °F 53.6 °F 94% 30.21 in 10.0 mi Calm Calm - N/A   Clear
9:16 PM 53.6 °F 53.6 °F 100% 30.21 in 10.0 mi Calm Calm - N/A   Clear
9:36 PM 51.8 °F 51.8 °F 100% 30.21 in 2.5 mi Calm Calm - N/A   Clear
9:56 PM 51.8 °F 51.8 °F 100% 30.21 in 10.0 mi Calm Calm - N/A   Clear
10:16 PM 53.6 °F 53.6 °F 100% 30.22 in 10.0 mi Calm Calm - N/A   Clear
10:36 PM 50.0 °F 50.0 °F 100% 30.22 in 0.5 mi Calm Calm - N/A Fog Fog
10:56 PM 51.8 °F 51.8 °F 100% 30.23 in 10.0 mi Calm Calm - N/A   Scattered Clouds
11:16 PM 50.0 °F 50.0 °F 100% 30.22 in 1.5 mi Calm Calm - N/A   Mist
11:36 PM 50.0 °F 50.0 °F 100% 30.22 in 10.0 mi Calm Calm - N/A   Clear
11:56 PM 50.0 °F 50.0 °F 100% 30.22 in 10.0 mi Calm Calm - N/A   Clear